When you browse on this site, cookies collect data to enhance your experience and personalize the content and advertising you see.
Visit our Privacy Policy to learn more. By continuing to use the site, you agree to this use of cookies and data.
  • In Österreich
  • Länderverzeichnis
  • Für 7 Tage
  • Wassertemperatur
  • Satellitenkarten
  • Wetterkarte
  • News
  • Widgets
  • user-avatar
    Anmelden

    Stündliche Wetter Elbasan

    Heute, 21 Juli, Sonntag

    Zeit Temperatur Niederschläge Wind Luftdruck Luftfeuchtigkeit
    00:00 +23°C° 0 mm 1 m/S 738 mmHg 68%
    01:00 +22°C° 0 mm 1 m/S 738 mmHg 70%
    02:00 +22°C° 0 mm 1 m/S 738 mmHg 69%
    03:00 +22°C° 0 mm 1 m/S 738 mmHg 69%
    04:00 +22°C° 0 mm 1 m/S 738 mmHg 69%
    05:00 +24°C° 0 mm 1 m/S 738 mmHg 65%
    06:00 +25°C° 0 mm 1 m/S 738 mmHg 60%
    07:00 +27°C° 0 mm 1 m/S 738 mmHg 55%
    08:00 +29°C° 0 mm 1 m/S 738 mmHg 50%
    09:00 +31°C° 0 mm 1 m/S 738 mmHg 44%
    10:00 +33°C° 0 mm 1 m/S 738 mmHg 39%
    11:00 +34°C° 0 mm 2 m/S 738 mmHg 37%
    12:00 +35°C° 0 mm 2 m/S 738 mmHg 36%
    13:00 +35°C° 0 mm 3 m/S 738 mmHg 34%
    14:00 +34°C° 0 mm 3 m/S 738 mmHg 37%
    15:00 +34°C° 0 mm 3 m/S 738 mmHg 40%
    16:00 +33°C° 0 mm 3 m/S 738 mmHg 43%
    17:00 +30°C° 0 mm 2 m/S 738 mmHg 49%
    18:00 +28°C° 0 mm 1 m/S 737 mmHg 55%
    19:00 +26°C° 0 mm 1 m/S 737 mmHg 61%
    20:00 +26°C° 0 mm 1 m/S 737 mmHg 63%
    21:00 +25°C° 0 mm 1 m/S 738 mmHg 65%
    22:00 +24°C° 0 mm 1 m/S 738 mmHg 66%
    23:00 +24°C° 0 mm 1 m/S 738 mmHg 66%

    Morgen, 22 Juli, Montag

    Zeit Temperatur Niederschläge Wind Luftdruck Luftfeuchtigkeit
    00:00 +24°C° 0 mm 1 m/S 738 mmHg 66%
    01:00 +24°C° 0 mm 1 m/S 738 mmHg 65%
    02:00 +24°C° 0 mm 1 m/S 738 mmHg 65%
    03:00 +23°C° 0 mm 1 m/S 738 mmHg 65%
    04:00 +23°C° 0 mm 1 m/S 737 mmHg 64%
    05:00 +25°C° 0 mm 1 m/S 738 mmHg 61%
    06:00 +27°C° 0 mm 1 m/S 738 mmHg 57%
    07:00 +28°C° 0 mm 1 m/S 738 mmHg 53%
    08:00 +30°C° 0 mm 1 m/S 738 mmHg 47%
    09:00 +32°C° 0 mm 1 m/S 738 mmHg 42%
    10:00 +34°C° 0 mm 1 m/S 738 mmHg 36%
    11:00 +34°C° 0 mm 1 m/S 738 mmHg 34%
    12:00 +36°C° 0 mm 2 m/S 738 mmHg 32%
    13:00 +36°C° 0 mm 2 m/S 737 mmHg 30%
    14:00 +36°C° 0 mm 2 m/S 737 mmHg 33%
    15:00 +35°C° 0 mm 3 m/S 737 mmHg 36%
    16:00 +34°C° 0 mm 3 m/S 737 mmHg 39%
    17:00 +31°C° 0 mm 2 m/S 737 mmHg 44%
    18:00 +29°C° 0 mm 2 m/S 737 mmHg 50%
    19:00 +28°C° 0 mm 1 m/S 736 mmHg 56%
    20:00 +27°C° 0 mm 1 m/S 737 mmHg 57%
    21:00 +26°C° 0 mm 1 m/S 737 mmHg 58%
    22:00 +26°C° 0 mm 1 m/S 737 mmHg 59%
    23:00 +25°C° 0 mm 1 m/S 737 mmHg 59%

    übermorgen, 23 Juli, Dienstag

    Zeit Temperatur Niederschläge Wind Luftdruck Luftfeuchtigkeit
    00:00 +25°C° 0 mm 1 m/S 736 mmHg 60%
    01:00 +24°C° 0 mm 2 m/S 736 mmHg 60%
    02:00 +24°C° 0 mm 2 m/S 736 mmHg 62%
    03:00 +24°C° 0 mm 2 m/S 736 mmHg 64%
    04:00 +23°C° 0 mm 2 m/S 736 mmHg 66%
    05:00 +25°C° 0 mm 2 m/S 736 mmHg 63%
    06:00 +26°C° 0 mm 2 m/S 736 mmHg 61%
    07:00 +28°C° 0 mm 2 m/S 736 mmHg 58%
    08:00 +29°C° 0 mm 2 m/S 736 mmHg 53%
    09:00 +31°C° 0 mm 2 m/S 736 mmHg 47%
    10:00 +32°C° 0 mm 2 m/S 736 mmHg 42%
    11:00 +34°C° 0 mm 2 m/S 736 mmHg 39%
    12:00 +35°C° 0 mm 2 m/S 735 mmHg 36%
    13:00 +35°C° 0 mm 3 m/S 735 mmHg 33%
    14:00 +35°C° 0 mm 3 m/S 735 mmHg 33%
    15:00 +35°C° 0 mm 3 m/S 734 mmHg 33%
    16:00 +35°C° 0 mm 3 m/S 734 mmHg 33%
    17:00 +31°C° 0 mm 3 m/S 734 mmHg 39%
    18:00 +29°C° 0 mm 3 m/S 734 mmHg 45%
    19:00 +27°C° 0 mm 2 m/S 734 mmHg 52%
    20:00 +26°C° 0 mm 2 m/S 734 mmHg 54%
    21:00 +25°C° 0 mm 2 m/S 734 mmHg 55%
    22:00 +24°C° 0 mm 2 m/S 734 mmHg 57%
    23:00 +24°C° 0 mm 2 m/S 734 mmHg 59%

    24 Juli, Mittwoch

    Zeit Temperatur Niederschläge Wind Luftdruck Luftfeuchtigkeit
    00:00 +24°C° 0 mm 3 m/S 734 mmHg 61%
    01:00 +22°C° 0 mm 3 m/S 734 mmHg 62%
    02:00 +22°C° 0 mm 3 m/S 734 mmHg 64%
    03:00 +21°C° 0 mm 3 m/S 734 mmHg 66%
    04:00 +21°C° 0 mm 3 m/S 734 mmHg 68%
    05:00 +22°C° 0 mm 3 m/S 734 mmHg 64%
    06:00 +25°C° 0 mm 3 m/S 734 mmHg 59%
    07:00 +26°C° 0 mm 3 m/S 734 mmHg 55%
    08:00 +28°C° 0 mm 3 m/S 734 mmHg 49%
    09:00 +30°C° 0 mm 3 m/S 735 mmHg 43%
    10:00 +31°C° 0 mm 3 m/S 735 mmHg 37%
    11:00 +33°C° 0 mm 3 m/S 735 mmHg 35%
    12:00 +34°C° 0 mm 3 m/S 735 mmHg 34%
    13:00 +34°C° 0 mm 3 m/S 735 mmHg 33%
    14:00 +34°C° 0 mm 3 m/S 734 mmHg 34%
    15:00 +34°C° 0 mm 3 m/S 734 mmHg 35%
    16:00 +34°C° 0 mm 3 m/S 734 mmHg 37%
    17:00 +31°C° 0 mm 2 m/S 734 mmHg 43%
    18:00 +29°C° 0 mm 2 m/S 734 mmHg 49%
    19:00 +27°C° 0 mm 2 m/S 734 mmHg 55%
    20:00 +26°C° 0 mm 2 m/S 734 mmHg 57%
    21:00 +25°C° 0 mm 2 m/S 735 mmHg 59%
    22:00 +24°C° 0 mm 2 m/S 735 mmHg 62%
    23:00 +24°C° 0 mm 2 m/S 735 mmHg 62%

    25 Juli, Donnerstag

    Zeit Temperatur Niederschläge Wind Luftdruck Luftfeuchtigkeit
    00:00 +23°C° 0 mm 2 m/S 735 mmHg 62%
    01:00 +22°C° 0 mm 3 m/S 735 mmHg 63%
    02:00 +23°C° 0 mm 2 m/S 735 mmHg 64%
    03:00 +21°C° 0 mm 2 m/S 735 mmHg 64%
    04:00 +21°C° 0 mm 2 m/S 735 mmHg 65%
    05:00 +24°C° 0 mm 2 m/S 735 mmHg 62%
    06:00 +25°C° 0 mm 2 m/S 736 mmHg 58%
    07:00 +27°C° 0 mm 2 m/S 736 mmHg 54%
    08:00 +29°C° 0 mm 1 m/S 736 mmHg 49%
    09:00 +31°C° 0 mm 1 m/S 736 mmHg 44%
    10:00 +33°C° 0 mm 1 m/S 736 mmHg 38%
    11:00 +33°C° 0 mm 1 m/S 736 mmHg 37%
    12:00 +35°C° 0 mm 2 m/S 736 mmHg 35%
    13:00 +35°C° 0 mm 2 m/S 735 mmHg 34%
    14:00 +34°C° 0 mm 3 m/S 735 mmHg 36%
    15:00 +33°C° 0 mm 3 m/S 735 mmHg 39%
    16:00 +33°C° 0 mm 3 m/S 735 mmHg 42%
    17:00 +30°C° 0 mm 2 m/S 735 mmHg 49%
    18:00 +28°C° 0 mm 2 m/S 735 mmHg 55%
    19:00 +26°C° 0 mm 1 m/S 735 mmHg 61%
    20:00 +25°C° 0 mm 1 m/S 735 mmHg 63%
    21:00 +25°C° 0 mm 1 m/S 735 mmHg 64%
    22:00 +24°C° 0 mm 1 m/S 735 mmHg 66%
    23:00 +24°C° 0 mm 1 m/S 735 mmHg 65%

    26 Juli, Freitag

    Zeit Temperatur Niederschläge Wind Luftdruck Luftfeuchtigkeit
    00:00 +24°C° 0 mm 1 m/S 735 mmHg 65%
    01:00 +23°C° 0 mm 1 m/S 735 mmHg 65%
    02:00 +23°C° 0 mm 1 m/S 735 mmHg 64%
    03:00 +23°C° 0 mm 1 m/S 735 mmHg 64%
    04:00 +23°C° 0 mm 1 m/S 735 mmHg 63%
    05:00 +24°C° 0 mm 1 m/S 735 mmHg 59%
    06:00 +26°C° 0 mm 1 m/S 735 mmHg 55%
    07:00 +28°C° 0 mm 1 m/S 735 mmHg 50%
    08:00 +30°C° 0 mm 1 m/S 735 mmHg 45%
    09:00 +31°C° 0 mm 1 m/S 735 mmHg 41%
    10:00 +33°C° 0 mm 1 m/S 735 mmHg 36%
    11:00 +34°C° 0 mm 2 m/S 735 mmHg 35%
    12:00 +35°C° 0 mm 2 m/S 735 mmHg 35%
    13:00 +35°C° 0 mm 3 m/S 735 mmHg 35%
    14:00 +34°C° 0 mm 3 m/S 734 mmHg 38%
    15:00 +33°C° 0 mm 3 m/S 734 mmHg 42%
    16:00 +33°C° 0 mm 3 m/S 734 mmHg 45%
    17:00 +30°C° 0 mm 2 m/S 734 mmHg 50%
    18:00 +28°C° 0 mm 1 m/S 734 mmHg 56%
    19:00 +26°C° 0 mm 1 m/S 733 mmHg 61%
    20:00 +25°C° 0 mm 1 m/S 734 mmHg 63%
    21:00 +25°C° 0 mm 1 m/S 734 mmHg 65%
    22:00 +24°C° 0 mm 1 m/S 734 mmHg 67%
    23:00 +24°C° 0 mm 1 m/S 734 mmHg 67%
    Mehr zeigen